Wind_Speed
51 53 50 41 45 48 50 51 50 45 41 49 48 52 47 41 37 32 30 32 35 38 36 36 38 41 42 37 38 39 38 36 38 38 37 39 37 36 34 38 39 38 35 36
51 56 49 50 49 50 51 52 53 51 48 53 53 50 49 42 36 31 31 27 28 26 28 32 36 36 39 42 40 40 42 42 42 42 40 40 39 36 37 37 38 39 39 38
50 54 51 50 53 50 48 53 53 56 54 55 57 53 48 39 39 33 23 35 27 31 31 34 37 39 41 43 45 43 43 45 48 46 45 44 42 42 42 42 43 45 45 45
54 51 51 52 51 49 54 43 52 52 55 56 54 55 54 45 38 41 34 35 31 23 30 27 28 33 35 38 42 45 43 44 44 46 47 46 45 45 45 47 50 50 50 49
45 43 43 47 44 50 52 48 48 52 57 57 58 59 59 56 48 50 45 41 44 42 43 40 40 41 42 47 45 45 47 52 48 46 48 50 47 48 52 52 54 55 54 53
49 49 52 48 48 50 51 52 54 55 58 61 57 54 63 63 61 56 56 57 57 56 52 49 46 45 47 49 50 50 50 48 51 51 49 51 53 49 49 54 56 55 55 55
48 49 50 53 52 51 53 53 54 57 60 62 62 63 65 66 65 64 61 61 61 63 60 57 55 54 55 54 56 57 58 57 56 55 54 54 56 56 54 54 54 56 56 55
56 54 53 53 54 56 57 58 62 63 63 64 64 73 70 65 67 68 69 65 64 60 60 60 61 59 59 59 59 58 61 61 60 60 59 56 57 57 57 57 57 58 58 57
66 65 63 61 63 64 64 63 58 62 64 69 70 69 71 68 69 73 73 72 65 64 63 64 62 63 65 61 61 53 54 57 57 59 65 70 67 63 62 60 58 58 55 56
68 70 68 68 66 69 69 70 71 70 65 68 74 76 74 71 71 73 75 68 66 64 64 67 69 71 66 59 58 59 60 62 55 52 57 61 64 63 66 67 59 55 57 57
66 67 70 74 76 73 72 72 70 70 70 77 81 82 68 73 76 76 76 78 77 76 78 78 70 68 65 57 60 62 63 59 59 58 57 60 60 62 69 70 63 59 55 59
67 68 71 75 75 77 77 77 74 69 73 73 74 84 73 76 77 75 80 81 82 82 82 81 81 69 70 70 68 71 66 62 60 61 62 62 62 64 72 71 66 63 63 65
71 74 67 76 76 76 76 74 71 71 72 76 79 78 70 74 74 82 85 84 84 83 83 79 78 80 76 75 71 70 72 68 71 70 66 66 66 68 65 67 71 74 71 70
73 77 77 76 77 76 78 76 75 77 81 81 77 71 70 69 72 82 89 88 85 86 82 82 81 82 82 80 81 78 78 78 77 76 66 66 70 75 74 76 80 70 74 81
69 73 70 72 72 70 72 72 73 77 74 66 68 73 75 74 71 70 72 71 76 75 76 80 79 80 84 88 85 85 81 80 81 76 67 66 65 70 84 81 79 82 75 85
68 71 70 69 60 58 61 62 66 72 73 76 75 82 86 78 76 76 68 70 72 77 85 84 82 80 79 82 87 89 86 84 76 82 78 75 75 79 73 79 76 84 79 84
66 67 68 74 65 72 81 79 75 76 79 84 87 86 82 87 92 89 81 83 86 85 86 94 93 86 83 82 81 80 83 90 88 81 83 81 77 77 82 84 79 83 84 85
71 70 73 80 76 84 80 79 82 84 84 84 86 86 86 85 88 95 98 99 98 95 94 90 88 88 90 80 81 82 85 85 74 74 74 79 79 80 82 85 85 85 84 76
74 73 79 81 82 86 84 82 83 85 88 88 89 90 89 90 89 85 88 89 90 90 88 87 86 86 85 82 82 84 81 79 87 88 84 82 81 81 86 91 92 89 85 78
76 78 82 84 86 90 87 86 86 88 90 88 88 87 87 88 88 83 86 88 89 89 89 88 87 87 98 105 107 97 101 99 97 102 98 94 91 89 85 84 87 94 95 87
75 76 76 77 79 81 79 76 76 77 79 81 82 82 84 86 86 86 84 85 86 86 85 83 82 82 78 81 86 86 84 82 88 89 90 92 89 91 86 77 70 74 79 82
69 69 69 70 72 76 73 73 73 73 74 77 79 81 83 84 83 84 83 83 84 84 84 85 85 84 83 80 83 76 75 80 81 80 76 73 81 87 85 76 69 74 76 77
62 59 63 65 67 64 65 68 68 71 74 76 79 77 79 80 80 81 82 82 83 85 86 87 89 89 88 91 96 98 99 103 101 99 97 88 84 80 84 81 69 71 81 84
55 56 62 63 60 64 67 67 68 68 71 71 71 71 70 72 73 74 75 76 77 79 83 85 87 89 87 90 93 95 98 111 111 108 102 93 93 89 87 85 73 72 66 66
54 56 56 62 60 62 63 64 64 64 63 63 63 62 63 65 66 69 71 71 73 76 78 81 83 84 85 86 88 90 93 97 100 106 105 104 95 89 89 84 75 71 64 69
52 53 57 61 56 55 59 56 55 57 57 56 56 56 57 60 64 68 70 72 75 76 76 78 78 81 82 83 84 85 87 89 91 94 97 96 97 93 93 89 81 78 80 77
Wind_Direction
278 275 280 286 276 278 281 282 285 289 288 279 277 282 283 284 281 286 288 286 282 280 279 275 269 268 271 270 271 275 276 276 276 274 271 268 268 267 271 272 268 267 270 271
275 277 279 275 276 276 279 283 283 284 283 280 284 281 283 286 286 292 289 291 292 285 280 276 271 271 271 269 269 272 275 274 271 273 272 271 269 268 269 272 271 269 272 270
269 272 274 275 275 273 274 277 280 279 281 283 285 282 282 280 285 287 286 294 288 289 283 270 267 266 265 266 269 271 272 273 275 270 268 269 268 270 270 272 269 268 267 269
267 269 270 272 274 276 269 275 274 276 277 280 280 279 281 286 279 278 284 283 285 282 288 280 280 283 277 276 278 279 272 268 271 276 275 271 268 267 268 270 272 270 270 270
275 270 267 265 269 270 274 274 274 275 274 273 274 280 280 284 280 281 287 285 285 283 277 277 281 278 275 280 279 277 279 282 278 276 277 272 268 272 272 269 267 268 269 267
267 267 266 268 270 268 270 273 276 272 271 268 272 280 274 273 278 280 288 290 294 289 287 287 283 279 279 278 278 280 277 275 275 274 273 274 271 267 264 265 264 264 264 265
264 264 262 263 270 270 272 273 276 273 271 271 274 270 267 272 280 284 288 289 292 293 292 291 289 284 281 280 280 279 278 279 278 276 274 271 272 270 266 265 264 263 263 266
266 264 266 265 267 269 271 272 273 277 275 270 267 265 270 274 281 287 287 289 291 289 291 293 288 285 282 282 277 273 275 276 273 274 274 270 267 266 263 259 262 262 262 261
273 266 270 270 271 273 273 272 275 274 272 273 269 261 267 271 275 279 284 288 290 290 289 288 289 292 289 286 283 274 266 262 262 263 265 269 271 270 267 263 261 257 252 254
269 267 266 266 268 270 274 276 276 275 274 273 269 270 267 272 277 277 279 281 280 278 277 279 279 278 277 279 279 278 278 276 271 266 259 261 265 270 269 268 252 240 245 252
276 277 271 269 270 274 274 275 274 273 271 276 277 269 269 272 272 277 280 277 275 274 272 274 275 276 280 279 279 280 283 278 274 276 266 263 258 257 260 261 251 256 255 265
276 276 277 275 276 277 278 278 280 277 279 275 274 274 271 274 279 278 273 274 273 274 273 272 275 271 270 274 273 276 272 269 266 272 271 259 258 255 252 251 248 247 257 266
276 275 281 279 274 277 277 277 275 275 275 276 279 278 281 280 276 276 279 280 279 278 279 278 277 277 270 268 266 270 270 268 274 272 264 254 255 250 251 251 253 255 259 268
270 270 271 272 276 275 275 276 277 278 278 280 280 280 281 279 278 277 277 277 277 277 276 277 277 275 273 270 265 265 264 263 269 266 260 257 256 250 245 247 250 255 268 274
269 270 271 271 271 272 272 273 274 274 274 269 267 270 273 275 269 266 268 273 275 275 276 274 273 274 273 272 269 264 262 260 260 256 261 260 257 261 250 253 253 262 266 269
272 274 274 274 276 261 254 258 268 268 270 267 271 276 278 272 267 262 258 260 267 274 274 275 278 277 268 267 268 267 265 260 265 258 260 263 265 268 264 258 258 261 263 264
273 275 275 273 271 261 262 272 273 271 268 268 271 274 274 270 270 271 267 269 269 267 268 269 274 272 268 263 263 266 268 264 268 271 271 270 264 262 263 263 264 261 259 261
272 272 272 274 272 271 275 273 273 275 275 274 275 275 275 274 271 274 276 276 276 275 272 269 268 264 261 262 264 264 263 263 263 267 264 259 262 261 261 262 258 255 256 254
269 270 273 274 274 275 274 276 277 278 279 280 281 281 281 281 280 281 281 279 277 275 273 270 266 259 255 256 256 258 255 261 265 267 265 266 262 257 258 258 258 254 255 254
269 270 271 272 274 276 276 277 277 278 278 278 278 278 279 279 279 279 278 278 278 278 277 275 272 266 259 261 263 259 263 266 266 266 264 263 259 265 263 264 263 264 261 262
270 271 272 274 275 276 277 279 278 278 280 279 280 282 282 283 283 283 281 280 279 279 278 277 274 272 269 264 261 258 256 259 260 261 263 266 261 264 265 262 263 265 266 266
273 273 275 276 275 277 280 281 281 281 280 281 281 282 282 283 283 283 283 281 281 279 278 275 272 266 262 259 257 258 259 262 260 265 269 269 263 256 256 259 259 259 260 268
274 277 275 274 277 281 282 280 278 279 280 280 282 283 283 283 282 281 281 281 280 280 279 277 275 272 270 267 264 256 258 266 266 269 267 262 268 262 254 259 262 263 259 257
276 274 276 278 279 279 278 278 279 279 280 282 283 284 284 284 284 284 283 283 282 281 281 281 279 277 273 271 269 266 263 262 262 264 265 265 265 264 262 255 256 255 253 253
279 281 284 279 280 281 280 282 285 286 287 287 287 288 287 286 287 288 287 288 287 286 285 284 283 282 279 277 274 272 269 266 262 260 261 261 258 255 257 251 246 246 254 255
284 284 281 282 285 287 288 289 288 288 291 292 290 288 289 292 293 294 294 295 294 291 289 287 285 282 280 279 277 275 273 270 267 263 260 259 259 253 250 244 245 246 245 249
Height
5797 5792 5794 5800 5792 5788 5785 5783 5781 5787 5789 5778 5776 5770 5777 5783 5786 5786 5785 5784 5784 5782 5782 5781 5777 5774 5772 5774 5774 5774 5774 5775 5774 5773 5773 5773 5775 5775 5775 5774 5772 5772 5772 5773
5787 5781 5788 5784 5783 5780 5777 5775 5773 5773 5775 5769 5766 5761 5765 5772 5774 5779 5777 5775 5774 5775 5773 5770 5767 5768 5765 5764 5765 5766 5766 5764 5764 5764 5764 5764 5765 5766 5765 5765 5765 5764 5764 5763
5775 5772 5774 5774 5771 5771 5770 5766 5764 5759 5760 5760 5756 5747 5753 5764 5765 5767 5768 5766 5764 5762 5762 5761 5758 5755 5754 5754 5752 5754 5754 5755 5754 5753 5754 5755 5755 5757 5756 5756 5754 5752 5752 5754
5760 5764 5764 5760 5759 5761 5754 5758 5755 5752 5748 5745 5746 5739 5736 5749 5754 5754 5758 5760 5757 5755 5752 5751 5752 5751 5746 5744 5743 5743 5741 5740 5741 5741 5743 5743 5744 5744 5746 5744 5743 5742 5742 5742
5752 5750 5750 5749 5750 5746 5747 5744 5745 5745 5741 5735 5731 5733 5732 5733 5735 5739 5743 5744 5746 5745 5743 5744 5742 5740 5740 5736 5733 5731 5731 5732 5730 5729 5729 5730 5729 5733 5734 5730 5728 5728 5729 5728
5738 5737 5735 5737 5738 5736 5736 5733 5731 5729 5728 5724 5726 5728 5720 5721 5720 5721 5724 5724 5722 5721 5724 5725 5726 5728 5728 5727 5723 5721 5720 5719 5718 5716 5714 5716 5716 5715 5715 5716 5714 5714 5714 5715
5723 5723 5724 5724 5723 5724 5723 5719 5714 5712 5713 5714 5717 5712 5707 5707 5713 5712 5712 5708 5705 5702 5703 5702 5704 5707 5709 5712 5712 5709 5708 5706 5704 5704 5703 5700 5701 5701 5701 5700 5700 5701 5700 5701
5707 5711 5708 5711 5711 5708 5707 5704 5701 5695 5698 5698 5700 5688 5697 5705 5704 5701 5696 5694 5691 5688 5685 5686 5686 5688 5691 5695 5696 5695 5694 5691 5687 5687 5683 5681 5680 5681 5681 5682 5684 5685 5685 5686
5687 5693 5693 5694 5693 5693 5692 5688 5688 5678 5680 5674 5683 5687 5687 5693 5692 5684 5680 5676 5673 5672 5672 5671 5666 5665 5665 5667 5664 5669 5671 5671 5672 5673 5671 5671 5669 5667 5666 5666 5666 5666 5666 5668
5670 5671 5675 5675 5676 5672 5669 5672 5668 5664 5654 5653 5663 5666 5675 5681 5674 5670 5663 5659 5658 5659 5659 5655 5651 5643 5642 5645 5646 5645 5647 5649 5650 5652 5652 5654 5655 5654 5653 5651 5649 5649 5648 5650
5654 5650 5661 5654 5656 5659 5654 5650 5650 5647 5641 5629 5629 5640 5669 5659 5654 5651 5643 5635 5636 5637 5636 5635 5638 5635 5632 5633 5629 5629 5630 5631 5632 5633 5636 5636 5635 5634 5634 5634 5634 5636 5636 5637
5639 5628 5626 5640 5643 5634 5630 5629 5631 5623 5621 5616 5607 5604 5651 5644 5637 5626 5614 5618 5617 5618 5617 5619 5619 5622 5619 5616 5615 5613 5613 5613 5614 5616 5617 5619 5619 5617 5616 5616 5617 5617 5618 5617
5622 5612 5607 5612 5625 5620 5613 5614 5610 5608 5602 5594 5587 5587 5615 5618 5611 5598 5595 5598 5597 5596 5595 5595 5596 5597 5601 5601 5598 5594 5595 5593 5592 5594 5595 5598 5598 5600 5600 5600 5601 5601 5599 5600
5603 5597 5597 5592 5599 5603 5589 5591 5593 5588 5579 5574 5570 5570 5579 5579 5584 5580 5575 5574 5573 5570 5573 5573 5574 5573 5573 5575 5576 5575 5573 5572 5575 5576 5575 5577 5579 5578 5578 5578 5578 5580 5580 5581
5584 5577 5580 5578 5576 5579 5571 5571 5574 5568 5564 5556 5557 5550 5549 5555 5557 5560 5557 5553 5549 5548 5548 5549 5549 5547 5545 5546 5550 5552 5551 5548 5552 5554 5556 5558 5557 5558 5559 5558 5560 5563 5565 5561
5565 5559 5556 5555 5563 5556 5549 5556 5559 5554 5550 5537 5533 5533 5531 5533 5533 5534 5535 5534 5534 5527 5522 5522 5523 5525 5523 5521 5520 5522 5525 5527 5522 5528 5531 5533 5533 5534 5536 5537 5540 5542 5543 5539
5547 5543 5540 5528 5546 5533 5526 5543 5538 5532 5529 5521 5520 5516 5513 5510 5508 5507 5509 5508 5510 5511 5507 5504 5501 5499 5498 5499 5500 5501 5500 5501 5500 5498 5502 5504 5507 5509 5512 5512 5515 5517 5518 5516
5528 5528 5518 5507 5517 5501 5520 5519 5513 5506 5504 5503 5496 5491 5487 5487 5489 5482 5478 5476 5478 5478 5479 5480 5479 5476 5477 5474 5474 5477 5476 5476 5476 5477 5479 5481 5482 5484 5484 5487 5489 5490 5491 5493
5508 5507 5497 5489 5489 5486 5492 5496 5491 5483 5479 5476 5468 5464 5460 5458 5461 5463 5451 5451 5448 5447 5449 5449 5449 5451 5450 5448 5448 5449 5449 5449 5450 5450 5455 5458 5457 5460 5462 5463 5465 5465 5466 5469
5491 5485 5477 5474 5468 5459 5471 5473 5469 5460 5453 5454 5446 5441 5437 5433 5431 5442 5430 5426 5425 5421 5419 5418 5419 5421 5419 5417 5415 5420 5420 5423 5422 5425 5426 5428 5428 5431 5435 5435 5436 5438 5440 5442
5473 5464 5458 5456 5447 5443 5449 5452 5446 5440 5437 5426 5423 5420 5414 5408 5406 5406 5408 5401 5396 5393 5391 5390 5391 5390 5392 5390 5386 5386 5387 5388 5390 5393 5396 5399 5398 5402 5406 5410 5413 5415 5416 5419
5447 5444 5446 5438 5430 5427 5434 5430 5426 5419 5410 5406 5402 5399 5391 5389 5387 5381 5380 5377 5370 5366 5365 5363 5361 5364 5365 5359 5356 5358 5359 5356 5359 5364 5366 5367 5370 5374 5379 5384 5389 5392 5394 5399
5425 5431 5421 5418 5416 5418 5415 5407 5404 5396 5388 5390 5383 5382 5372 5367 5364 5359 5355 5353 5348 5341 5336 5332 5329 5331 5336 5331 5329 5331 5329 5328 5329 5331 5336 5341 5343 5348 5354 5358 5363 5370 5372 5376
5414 5412 5402 5402 5411 5397 5393 5389 5383 5378 5373 5372 5366 5359 5353 5345 5342 5336 5331 5328 5323 5318 5311 5304 5301 5300 5302 5298 5296 5295 5296 5293 5295 5298 5303 5311 5316 5322 5326 5332 5339 5344 5351 5353
5401 5395 5394 5383 5386 5376 5375 5370 5363 5361 5357 5352 5347 5341 5333 5326 5324 5314 5311 5306 5299 5294 5288 5279 5274 5269 5269 5265 5264 5262 5261 5259 5262 5265 5273 5280 5287 5296 5301 5306 5312 5320 5326 5330
5384 5381 5369 5364 5368 5357 5355 5355 5349 5344 5339 5333 5328 5324 5318 5311 5305 5297 5294 5286 5278 5271 5264 5255 5248 5240 5238 5235 5234 5231 5227 5225 5228 5235 5241 5248 5254 5263 5273 5279 5284 5291 5300 5305